Location: McFarlands Corners
(41.4117°N, 81.3382°W)
Time: 20:13:50
(UTC+00:00)

SR - Pass Details

Date: 21 February 2026
Orbit: 572 x 848 km, 66.7° (Epoch: 8 March)

Event Time Altitude Azimuth Distance (km) Brightness Sun altitude
Rises 08:23:03 0° 189° (S) 2,762 - -42.6°
Reaches altitude 10° 08:25:20 10° 181° (S) 1,874 - -42.2°
Maximum altitude 08:29:12 38° 113° (ESE) 904 - -41.6°
Drops below altitude 10° 08:33:14 10° 45° (NE) 1,954 - -40.9°
Exits shadow 08:33:47 - 43° (NE) 2,166 ? -40.8°
Sets 08:35:39 0° 38° (NE) 2,898 ? -40.5°
